Time,TemperatureF,DewpointF,PressureIn,WindDirection,WindDirectionDegrees,WindSpeedMPH,WindSpeedGustMPH,Humidity,HourlyPrecipIn,Conditions,Clouds,dailyrainin,SoftwareType,DateUTC
2013-03-01 00:04:00,35.8,27.7,30.02,SE,145,2.0,4.0,72,0.00,,,0.00,Wunderground v.1.15,2013-03-01 06:04:00,
2013-03-01 00:09:00,35.7,27.6,30.01,SE,140,2.0,2.0,72,0.00,,,0.00,Wunderground v.1.15,2013-03-01 06:09:00,
2013-03-01 00:15:00,35.7,27.9,30.01,SE,140,1.0,4.0,73,0.00,,,0.00,Wunderground v.1.15,2013-03-01 06:15:00,
2013-03-01 00:20:00,35.6,27.8,30.01,SE,140,1.0,4.0,73,0.00,,,0.00,Wunderground v.1.15,2013-03-01 06:20:00,
2013-03-01 00:26:00,35.6,27.8,30.01,SE,140,1.0,4.0,73,0.00,,,0.00,Wunderground v.1.15,2013-03-01 06:26:00,
2013-03-01 00:31:00,35.5,28.0,30.01,SE,144,0.0,4.0,74,0.00,,,0.00,Wunderground v.1.15,2013-03-01 06:31:00,
2013-03-01 00:36:00,35.5,27.7,30.01,SE,142,1.0,4.0,73,0.00,,,0.00,Wunderground v.1.15,2013-03-01 06:36:00,
2013-03-01 00:42:00,35.5,28.0,30.01,SE,129,2.0,4.0,74,0.00,,,0.00,Wunderground v.1.15,2013-03-01 06:42:00,
2013-03-01 00:47:00,35.5,28.0,30.01,ESE,116,2.0,4.0,74,0.00,,,0.00,Wunderground v.1.15,2013-03-01 06:47:00,
2013-03-01 00:52:00,35.5,28.0,30.01,SE,133,2.0,4.0,74,0.00,,,0.00,Wunderground v.1.15,2013-03-01 06:52:00,
2013-03-01 00:58:00,35.5,28.4,30.01,SE,129,2.0,4.0,75,0.00,,,0.00,Wunderground v.1.15,2013-03-01 06:58:00,
2013-03-01 01:03:00,35.5,28.4,30.01,SSE,147,2.0,4.0,75,0.00,,,0.00,Wunderground v.1.15,2013-03-01 07:03:00,
2013-03-01 01:08:00,35.4,28.3,30.01,SE,144,2.0,4.0,75,0.00,,,0.00,Wunderground v.1.15,2013-03-01 07:08:00,
2013-03-01 01:14:00,35.4,28.3,30.01,SE,143,1.0,4.0,75,0.00,,,0.00,Wunderground v.1.15,2013-03-01 07:14:00,
2013-03-01 01:19:00,35.4,28.6,30.01,SE,144,0.0,4.0,76,0.00,,,0.00,Wunderground v.1.15,2013-03-01 07:19:00,
2013-03-01 01:25:00,35.3,28.5,30.01,SE,144,0.0,4.0,76,0.00,,,0.00,Wunderground v.1.15,2013-03-01 07:25:00,
2013-03-01 01:30:00,35.3,28.5,30.01,SE,143,0.0,4.0,76,0.00,,,0.00,Wunderground v.1.15,2013-03-01 07:30:00,
2013-03-01 01:35:00,35.3,28.5,30.00,SE,144,0.0,4.0,76,0.00,,,0.00,Wunderground v.1.15,2013-03-01 07:35:00,
2013-03-01 01:41:00,35.3,28.5,30.00,SE,144,0.0,4.0,76,0.00,,,0.00,Wunderground v.1.15,2013-03-01 07:41:00,
2013-03-01 01:47:00,35.2,28.4,30.00,SE,144,0.0,4.0,76,0.00,,,0.00,Wunderground v.1.15,2013-03-01 07:47:00,
2013-03-01 01:53:00,35.2,28.7,30.00,SE,144,0.0,4.0,77,0.00,,,0.00,Wunderground v.1.15,2013-03-01 07:53:00,
2013-03-01 01:59:00,35.1,28.6,30.00,SE,144,0.0,4.0,77,0.00,,,0.00,Wunderground v.1.15,2013-03-01 07:59:00,
2013-03-01 02:04:00,35.1,28.6,30.00,SSE,150,1.0,4.0,77,0.00,,,0.00,Wunderground v.1.15,2013-03-01 08:04:00,
2013-03-01 02:09:00,35.1,28.9,30.00,SSE,148,1.0,4.0,78,0.00,,,0.00,Wunderground v.1.15,2013-03-01 08:09:00,
2013-03-01 02:15:00,35.1,28.6,30.00,SE,140,1.0,4.0,77,0.00,,,0.00,Wunderground v.1.15,2013-03-01 08:15:00,
2013-03-01 02:20:00,35.1,28.6,30.00,SSE,156,1.0,4.0,77,0.00,,,0.00,Wunderground v.1.15,2013-03-01 08:20:00,
2013-03-01 02:25:00,35.1,28.9,30.00,SSE,156,2.0,4.0,78,0.00,,,0.00,Wunderground v.1.15,2013-03-01 08:25:00,
2013-03-01 02:31:00,35.1,28.9,30.01,SSE,147,2.0,4.0,78,0.00,,,0.00,Wunderground v.1.15,2013-03-01 08:31:00,
2013-03-01 02:36:00,35.0,28.8,30.01,SE,145,2.0,4.0,78,0.00,,,0.00,Wunderground v.1.15,2013-03-01 08:36:00,
2013-03-01 02:41:00,35.0,28.8,30.01,SE,136,1.0,4.0,78,0.00,,,0.00,Wunderground v.1.15,2013-03-01 08:41:00,
2013-03-01 02:47:00,35.0,28.8,30.01,SSE,153,1.0,4.0,78,0.00,,,0.00,Wunderground v.1.15,2013-03-01 08:47:00,
2013-03-01 02:52:00,35.0,29.1,30.01,SSE,153,0.0,4.0,79,0.00,,,0.00,Wunderground v.1.15,2013-03-01 08:52:00,
2013-03-01 02:58:00,35.0,29.1,30.01,SSE,153,0.0,4.0,79,0.00,,,0.00,Wunderground v.1.15,2013-03-01 08:58:00,
2013-03-01 03:04:00,34.9,29.0,30.01,SSE,160,1.0,4.0,79,0.00,,,0.00,Wunderground v.1.15,2013-03-01 09:04:00,
2013-03-01 03:09:00,34.9,29.0,30.01,SSE,163,1.0,4.0,79,0.00,,,0.00,Wunderground v.1.15,2013-03-01 09:09:00,
2013-03-01 03:15:00,34.9,29.0,30.01,SSE,149,1.0,4.0,79,0.00,,,0.00,Wunderground v.1.15,2013-03-01 09:15:00,
2013-03-01 03:21:00,34.9,29.0,30.01,SSE,153,0.0,4.0,79,0.00,,,0.00,Wunderground v.1.15,2013-03-01 09:21:00,
2013-03-01 03:26:00,34.9,29.0,30.01,SSE,153,0.0,4.0,79,0.00,,,0.00,Wunderground v.1.15,2013-03-01 09:26:00,
2013-03-01 03:32:00,34.8,29.0,30.01,SSE,153,0.0,4.0,79,0.00,,,0.00,Wunderground v.1.15,2013-03-01 09:32:00,
2013-03-01 03:37:00,34.9,29.0,30.01,SSE,153,0.0,4.0,79,0.00,,,0.00,Wunderground v.1.15,2013-03-01 09:37:00,
2013-03-01 03:43:00,34.8,29.3,30.01,SSE,153,0.0,4.0,80,0.00,,,0.00,Wunderground v.1.15,2013-03-01 09:43:00,
2013-03-01 03:48:00,34.8,29.3,30.01,SSE,153,0.0,4.0,80,0.00,,,0.00,Wunderground v.1.15,2013-03-01 09:48:00,
2013-03-01 03:54:00,34.8,29.3,30.01,SSE,153,0.0,4.0,80,0.00,,,0.00,Wunderground v.1.15,2013-03-01 09:54:00,
2013-03-01 04:00:00,34.8,29.3,30.01,SSE,153,0.0,4.0,80,0.00,,,0.00,Wunderground v.1.15,2013-03-01 10:00:00,
2013-03-01 04:05:00,34.8,29.3,30.01,SSE,153,0.0,4.0,80,0.00,,,0.00,Wunderground v.1.15,2013-03-01 10:05:00,
2013-03-01 04:10:00,34.8,29.3,30.01,SSE,152,0.0,4.0,80,0.00,,,0.00,Wunderground v.1.15,2013-03-01 10:10:00,
2013-03-01 04:16:00,34.8,29.3,30.02,SSE,153,0.0,4.0,80,0.00,,,0.00,Wunderground v.1.15,2013-03-01 10:16:00,
2013-03-01 04:21:00,34.9,29.4,30.01,SSE,152,0.0,4.0,80,0.00,,,0.00,Wunderground v.1.15,2013-03-01 10:21:00,
2013-03-01 04:27:00,34.9,29.0,30.01,SSE,152,0.0,4.0,79,0.00,,,0.00,Wunderground v.1.15,2013-03-01 10:27:00,
2013-03-01 04:32:00,34.9,29.0,30.01,SSE,153,0.0,4.0,79,0.00,,,0.00,Wunderground v.1.15,2013-03-01 10:32:00,
2013-03-01 04:37:00,34.9,29.4,30.01,SSE,152,0.0,4.0,80,0.00,,,0.00,Wunderground v.1.15,2013-03-01 10:37:00,
2013-03-01 04:43:00,34.9,29.4,30.01,SE,143,0.0,4.0,80,0.00,,,0.00,Wunderground v.1.15,2013-03-01 10:43:00,
2013-03-01 04:48:00,35.0,29.5,30.01,SSE,157,0.0,4.0,80,0.00,,,0.00,Wunderground v.1.15,2013-03-01 10:48:00,
2013-03-01 04:54:00,35.1,29.9,30.01,SSE,149,0.0,4.0,81,0.00,,,0.00,Wunderground v.1.15,2013-03-01 10:54:00,
2013-03-01 04:59:00,35.1,29.6,30.01,SE,143,1.0,1.0,80,0.00,,,0.00,Wunderground v.1.15,2013-03-01 10:59:00,
2013-03-01 05:04:00,35.1,29.6,30.01,SE,144,0.0,4.0,80,0.00,,,0.00,Wunderground v.1.15,2013-03-01 11:04:00,
2013-03-01 05:10:00,35.0,29.8,30.01,SE,138,0.0,4.0,81,0.00,,,0.00,Wunderground v.1.15,2013-03-01 11:10:00,
2013-03-01 05:15:00,35.1,29.6,30.01,SE,140,0.0,4.0,80,0.00,,,0.00,Wunderground v.1.15,2013-03-01 11:15:00,
2013-03-01 05:20:00,35.1,29.6,30.01,SE,140,0.0,4.0,80,0.00,,,0.00,Wunderground v.1.15,2013-03-01 11:20:00,
2013-03-01 05:26:00,35.1,29.9,30.01,SSE,148,0.0,4.0,81,0.00,,,0.00,Wunderground v.1.15,2013-03-01 11:26:00,
2013-03-01 05:32:00,34.9,29.7,30.01,SE,145,0.0,4.0,81,0.00,,,0.00,Wunderground v.1.15,2013-03-01 11:32:00,
2013-03-01 05:37:00,35.0,29.8,30.01,SSE,152,0.0,4.0,81,0.00,,,0.00,Wunderground v.1.15,2013-03-01 11:37:00,
2013-03-01 05:43:00,35.0,29.8,30.01,SSE,153,0.0,4.0,81,0.00,,,0.00,Wunderground v.1.15,2013-03-01 11:43:00,
2013-03-01 05:49:00,35.0,29.5,30.01,SSE,156,0.0,4.0,80,0.00,,,0.00,Wunderground v.1.15,2013-03-01 11:49:00,
2013-03-01 05:54:00,35.0,29.8,30.01,SSE,156,0.0,4.0,81,0.00,,,0.00,Wunderground v.1.15,2013-03-01 11:54:00,
2013-03-01 06:00:00,35.1,29.9,30.02,SSE,156,0.0,4.0,81,0.00,,,0.00,Wunderground v.1.15,2013-03-01 12:00:00,
2013-03-01 06:05:00,35.0,29.5,30.02,SSE,157,1.0,4.0,80,0.00,,,0.00,Wunderground v.1.15,2013-03-01 12:05:00,
2013-03-01 06:10:00,35.1,29.6,30.02,SE,133,1.0,4.0,80,0.00,,,0.00,Wunderground v.1.15,2013-03-01 12:10:00,
2013-03-01 06:16:00,35.1,29.9,30.02,SSE,151,2.0,4.0,81,0.00,,,0.00,Wunderground v.1.15,2013-03-01 12:16:00,
2013-03-01 06:21:00,35.1,29.9,30.02,SSE,149,2.0,4.0,81,0.00,,,0.00,Wunderground v.1.15,2013-03-01 12:21:00,
2013-03-01 06:26:00,35.2,29.6,30.02,SE,144,1.0,4.0,80,0.00,,,0.00,Wunderground v.1.15,2013-03-01 12:26:00,
2013-03-01 06:32:00,35.2,29.6,30.02,SSE,149,1.0,4.0,80,0.00,,,0.00,Wunderground v.1.15,2013-03-01 12:32:00,
2013-03-01 06:37:00,35.2,29.6,30.02,SSE,149,0.0,4.0,80,0.00,,,0.00,Wunderground v.1.15,2013-03-01 12:37:00,
2013-03-01 06:42:00,35.1,29.9,30.02,SSE,149,0.0,4.0,81,0.00,,,0.00,Wunderground v.1.15,2013-03-01 12:42:00,
2013-03-01 06:47:00,35.1,29.9,30.02,SSE,153,0.0,4.0,81,0.00,,,0.00,Wunderground v.1.15,2013-03-01 12:47:00,
2013-03-01 06:53:00,35.1,29.9,30.03,SSE,153,0.0,4.0,81,0.00,,,0.00,Wunderground v.1.15,2013-03-01 12:53:00,
2013-03-01 06:58:00,35.1,29.9,30.03,SSE,153,0.0,4.0,81,0.00,,,0.00,Wunderground v.1.15,2013-03-01 12:58:00,
2013-03-01 07:03:00,35.1,30.2,30.03,SSE,153,0.0,4.0,82,0.00,,,0.00,Wunderground v.1.15,2013-03-01 13:03:00,
2013-03-01 07:09:00,35.2,30.3,30.03,SSE,153,0.0,4.0,82,0.00,,,0.00,Wunderground v.1.15,2013-03-01 13:09:00,
2013-03-01 07:14:00,35.2,30.3,30.03,SSE,153,0.0,4.0,82,0.00,,,0.00,Wunderground v.1.15,2013-03-01 13:14:00,
2013-03-01 07:19:00,35.2,30.3,30.03,SSE,152,0.0,4.0,82,0.00,,,0.00,Wunderground v.1.15,2013-03-01 13:19:00,
2013-03-01 07:25:00,35.4,30.8,30.03,SSE,153,0.0,4.0,83,0.00,,,0.00,Wunderground v.1.15,2013-03-01 13:25:00,
2013-03-01 07:30:00,35.4,30.5,30.03,SSE,152,0.0,4.0,82,0.00,,,0.00,Wunderground v.1.15,2013-03-01 13:30:00,
2013-03-01 07:35:00,35.5,30.8,30.04,SSE,153,0.0,4.0,83,0.00,,,0.00,Wunderground v.1.15,2013-03-01 13:35:00,
2013-03-01 07:40:00,35.5,30.2,30.04,SSE,153,0.0,4.0,81,0.00,,,0.00,Wunderground v.1.15,2013-03-01 13:40:00,
2013-03-01 07:46:00,35.6,30.0,30.04,SSE,153,0.0,4.0,80,0.00,,,0.00,Wunderground v.1.15,2013-03-01 13:46:00,
2013-03-01 07:51:00,35.6,30.3,30.04,SSE,153,0.0,4.0,81,0.00,,,0.00,Wunderground v.1.15,2013-03-01 13:51:00,
2013-03-01 07:56:00,35.7,30.1,30.04,SSE,153,0.0,4.0,80,0.00,,,0.00,Wunderground v.1.15,2013-03-01 13:56:00,
2013-03-01 08:02:00,35.7,30.1,30.04,SSE,153,0.0,4.0,80,0.00,,,0.00,Wunderground v.1.15,2013-03-01 14:02:00,
2013-03-01 08:07:00,35.8,30.2,30.04,SSE,162,0.0,4.0,80,0.00,,,0.00,Wunderground v.1.15,2013-03-01 14:07:00,
2013-03-01 08:12:00,35.9,30.6,30.04,SSE,159,1.0,4.0,81,0.00,,,0.00,Wunderground v.1.15,2013-03-01 14:12:00,
2013-03-01 08:18:00,36.1,30.5,30.04,SSE,162,1.0,4.0,80,0.00,,,0.00,Wunderground v.1.15,2013-03-01 14:18:00,
2013-03-01 08:23:00,36.1,30.8,30.05,SSE,160,1.0,4.0,81,0.00,,,0.00,Wunderground v.1.15,2013-03-01 14:23:00,
2013-03-01 08:28:00,36.1,30.8,30.04,SSE,153,1.0,4.0,81,0.00,,,0.00,Wunderground v.1.15,2013-03-01 14:28:00,
2013-03-01 08:34:00,36.0,30.7,30.04,SSE,159,2.0,4.0,81,0.00,,,0.00,Wunderground v.1.15,2013-03-01 14:34:00,
2013-03-01 08:39:00,36.0,30.7,30.04,SSE,152,2.0,2.0,81,0.00,,,0.00,Wunderground v.1.15,2013-03-01 14:39:00,
2013-03-01 08:44:00,35.9,30.6,30.04,SE,140,2.0,4.0,81,0.00,,,0.00,Wunderground v.1.15,2013-03-01 14:44:00,
2013-03-01 08:50:00,36.1,30.8,30.04,SE,143,1.0,4.0,81,0.00,,,0.00,Wunderground v.1.15,2013-03-01 14:50:00,
2013-03-01 08:55:00,36.1,30.8,30.04,SE,143,0.0,4.0,81,0.00,,,0.00,Wunderground v.1.15,2013-03-01 14:55:00,
2013-03-01 09:00:00,36.2,30.9,30.05,SSE,149,0.0,4.0,81,0.00,,,0.00,Wunderground v.1.15,2013-03-01 15:00:00,
2013-03-01 09:06:00,36.4,31.1,30.04,SSE,155,0.0,4.0,81,0.00,,,0.00,Wunderground v.1.15,2013-03-01 15:06:00,
2013-03-01 09:11:00,36.4,31.1,30.04,South,169,0.0,4.0,81,0.00,,,0.00,Wunderground v.1.15,2013-03-01 15:11:00,
2013-03-01 09:16:00,36.3,31.0,30.04,SSE,160,1.0,4.0,81,0.00,,,0.00,Wunderground v.1.15,2013-03-01 15:16:00,
2013-03-01 09:21:00,36.4,31.4,30.05,SSE,148,1.0,4.0,82,0.00,,,0.00,Wunderground v.1.15,2013-03-01 15:21:00,
2013-03-01 09:27:00,36.4,31.1,30.05,SSE,160,1.0,4.0,81,0.00,,,0.00,Wunderground v.1.15,2013-03-01 15:27:00,
2013-03-01 09:32:00,36.4,31.1,30.05,SSE,160,1.0,4.0,81,0.00,,,0.00,Wunderground v.1.15,2013-03-01 15:32:00,
2013-03-01 09:37:00,36.3,31.0,30.05,SSE,162,1.0,4.0,81,0.00,,,0.00,Wunderground v.1.15,2013-03-01 15:37:00,
2013-03-01 09:43:00,36.1,30.8,30.05,SSE,166,2.0,4.0,81,0.00,,,0.00,Wunderground v.1.15,2013-03-01 15:43:00,
2013-03-01 09:48:00,36.2,31.2,30.05,SSE,163,1.0,4.0,82,0.00,,,0.00,Wunderground v.1.15,2013-03-01 15:48:00,
2013-03-01 09:53:00,36.3,31.3,30.05,SSE,155,0.0,4.0,82,0.00,,,0.00,Wunderground v.1.15,2013-03-01 15:53:00,
2013-03-01 09:59:00,36.4,31.1,30.05,SE,141,1.0,1.0,81,0.00,,,0.00,Wunderground v.1.15,2013-03-01 15:59:00,
2013-03-01 10:04:00,36.4,31.1,30.05,SSE,155,1.0,4.0,81,0.00,,,0.00,Wunderground v.1.15,2013-03-01 16:04:00,
2013-03-01 10:09:00,36.5,30.6,30.05,SSE,149,1.0,4.0,79,0.00,,,0.00,Wunderground v.1.15,2013-03-01 16:09:00,
2013-03-01 10:14:00,36.5,30.6,30.05,SSE,160,2.0,4.0,79,0.00,,,0.00,Wunderground v.1.15,2013-03-01 16:14:00,
2013-03-01 10:20:00,36.8,30.6,30.04,South,181,2.0,4.0,78,0.00,,,0.00,Wunderground v.1.15,2013-03-01 16:20:00,
2013-03-01 10:25:00,36.9,30.4,30.04,SSE,166,3.0,4.0,77,0.00,,,0.00,Wunderground v.1.15,2013-03-01 16:25:00,
2013-03-01 10:31:00,37.1,30.6,30.04,SSE,157,2.0,4.0,77,0.00,,,0.00,Wunderground v.1.15,2013-03-01 16:31:00,
2013-03-01 10:37:00,37.4,30.5,30.04,SSE,156,1.0,4.0,76,0.00,,,0.00,Wunderground v.1.15,2013-03-01 16:37:00,
2013-03-01 10:42:00,37.5,30.6,30.04,SSE,160,1.0,4.0,76,0.00,,,0.00,Wunderground v.1.15,2013-03-01 16:42:00,
2013-03-01 10:47:00,37.7,30.8,30.04,SSE,149,1.0,4.0,76,0.00,,,0.00,Wunderground v.1.15,2013-03-01 16:47:00,
2013-03-01 10:53:00,37.8,30.6,30.04,SE,140,1.0,4.0,75,0.00,,,0.00,Wunderground v.1.15,2013-03-01 16:53:00,
2013-03-01 10:58:00,38.1,30.5,30.04,SE,138,1.0,4.0,74,0.00,,,0.00,Wunderground v.1.15,2013-03-01 16:58:00,
2013-03-01 11:03:00,38.5,30.9,30.03,SSE,151,1.0,4.0,74,0.00,,,0.00,Wunderground v.1.15,2013-03-01 17:03:00,
2013-03-01 11:09:00,38.8,31.2,30.04,SSE,152,1.0,1.0,74,0.00,,,0.00,Wunderground v.1.15,2013-03-01 17:09:00,
2013-03-01 11:14:00,38.9,31.0,30.03,SE,144,0.0,4.0,73,0.00,,,0.00,Wunderground v.1.15,2013-03-01 17:14:00,
2013-03-01 11:19:00,38.9,30.6,30.04,SE,145,1.0,4.0,72,0.00,,,0.00,Wunderground v.1.15,2013-03-01 17:19:00,
2013-03-01 11:25:00,38.9,30.6,30.03,SSE,157,1.0,4.0,72,0.00,,,0.00,Wunderground v.1.15,2013-03-01 17:25:00,
2013-03-01 11:30:00,39.1,30.8,30.03,SSE,150,0.0,4.0,72,0.00,,,0.00,Wunderground v.1.15,2013-03-01 17:30:00,
2013-03-01 11:35:00,39.4,30.4,30.03,SSE,167,1.0,4.0,70,0.00,,,0.00,Wunderground v.1.15,2013-03-01 17:35:00,
2013-03-01 11:41:00,39.2,30.6,30.03,WSW,257,2.0,8.0,71,0.00,,,0.00,Wunderground v.1.15,2013-03-01 17:41:00,
2013-03-01 11:46:00,39.0,30.4,30.03,SSE,155,3.0,8.0,71,0.00,,,0.00,Wunderground v.1.15,2013-03-01 17:46:00,
2013-03-01 11:51:00,38.8,30.2,30.02,SE,133,3.0,4.0,71,0.00,,,0.00,Wunderground v.1.15,2013-03-01 17:51:00,
2013-03-01 11:56:00,38.7,30.1,30.02,SE,134,3.0,4.0,71,0.00,,,0.00,Wunderground v.1.15,2013-03-01 17:56:00,
2013-03-01 12:02:00,38.7,30.1,30.02,SSE,162,3.0,5.0,71,0.00,,,0.00,Wunderground v.1.15,2013-03-01 18:02:00,
2013-03-01 12:07:00,38.7,30.4,30.02,SSE,155,3.0,5.0,72,0.00,,,0.00,Wunderground v.1.15,2013-03-01 18:07:00,
2013-03-01 12:13:00,38.7,30.4,30.02,SSE,152,3.0,5.0,72,0.00,,,0.00,Wunderground v.1.15,2013-03-01 18:13:00,
2013-03-01 12:19:00,38.7,30.4,30.02,South,188,3.0,3.0,72,0.00,,,0.00,Wunderground v.1.15,2013-03-01 18:19:00,
2013-03-01 12:24:00,38.6,30.0,30.02,SE,140,3.0,7.0,71,0.00,,,0.00,Wunderground v.1.15,2013-03-01 18:24:00,
2013-03-01 12:30:00,38.5,30.3,30.02,SE,136,3.0,5.0,72,0.00,,,0.00,Wunderground v.1.15,2013-03-01 18:30:00,
2013-03-01 12:35:00,38.4,30.5,30.02,SE,135,3.0,8.0,73,0.00,,,0.00,Wunderground v.1.15,2013-03-01 18:35:00,
2013-03-01 12:40:00,38.3,30.7,30.02,SSE,167,2.0,4.0,74,0.00,,,0.00,Wunderground v.1.15,2013-03-01 18:40:00,
2013-03-01 12:46:00,38.1,30.5,30.02,SE,138,3.0,5.0,74,0.00,,,0.00,Wunderground v.1.15,2013-03-01 18:46:00,
2013-03-01 12:51:00,38.0,30.4,30.02,SE,143,3.0,5.0,74,0.00,,,0.00,Wunderground v.1.15,2013-03-01 18:51:00,
2013-03-01 12:57:00,38.2,30.3,30.01,ESE,117,3.0,5.0,73,0.00,,,0.00,Wunderground v.1.15,2013-03-01 18:57:00,
2013-03-01 13:02:00,38.4,30.5,30.01,ESE,121,4.0,5.0,73,0.00,,,0.00,Wunderground v.1.15,2013-03-01 19:02:00,
2013-03-01 13:07:00,38.3,30.1,30.01,SSE,164,3.0,5.0,72,0.00,,,0.00,Wunderground v.1.15,2013-03-01 19:07:00,
2013-03-01 13:13:00,38.2,30.3,30.01,South,171,3.0,4.0,73,0.00,,,0.00,Wunderground v.1.15,2013-03-01 19:13:00,
2013-03-01 13:18:00,38.1,29.9,30.01,SSW,212,3.0,9.0,72,0.00,,,0.00,Wunderground v.1.15,2013-03-01 19:18:00,
2013-03-01 13:24:00,38.1,29.9,30.01,SSE,157,3.0,5.0,72,0.00,,,0.00,Wunderground v.1.15,2013-03-01 19:24:00,
2013-03-01 13:29:00,38.0,29.8,30.00,SSW,209,2.0,4.0,72,0.00,,,0.00,Wunderground v.1.15,2013-03-01 19:29:00,
2013-03-01 13:34:00,37.9,30.0,30.00,SE,134,3.0,8.0,73,0.00,,,0.00,Wunderground v.1.15,2013-03-01 19:34:00,
2013-03-01 13:40:00,37.8,29.9,30.01,ESE,102,3.0,5.0,73,0.00,,,0.00,Wunderground v.1.15,2013-03-01 19:40:00,
2013-03-01 13:45:00,37.7,30.2,30.00,ESE,116,4.0,5.0,74,0.00,,,0.00,Wunderground v.1.15,2013-03-01 19:45:00,
2013-03-01 13:50:00,37.6,30.1,30.01,SSE,159,5.0,5.0,74,0.00,,,0.00,Wunderground v.1.15,2013-03-01 19:50:00,
2013-03-01 13:55:00,37.5,30.0,30.00,SSE,163,3.0,5.0,74,0.00,,,0.00,Wunderground v.1.15,2013-03-01 19:55:00,
2013-03-01 14:01:00,37.7,30.2,30.01,SSE,152,1.0,4.0,74,0.00,,,0.00,Wunderground v.1.15,2013-03-01 20:01:00,
2013-03-01 14:06:00,37.7,30.2,30.01,SSE,157,1.0,4.0,74,0.00,,,0.00,Wunderground v.1.15,2013-03-01 20:06:00,
2013-03-01 14:11:00,37.5,30.3,30.01,ENE,68,2.0,5.0,75,0.00,,,0.00,Wunderground v.1.15,2013-03-01 20:11:00,
2013-03-01 14:17:00,37.4,30.2,30.01,SE,137,3.0,6.0,75,0.00,,,0.00,Wunderground v.1.15,2013-03-01 20:17:00,
2013-03-01 14:22:00,37.4,29.9,30.01,South,169,3.0,6.0,74,0.00,,,0.00,Wunderground v.1.15,2013-03-01 20:22:00,
2013-03-01 14:27:00,37.4,30.2,30.01,SE,142,2.0,6.0,75,0.00,,,0.00,Wunderground v.1.15,2013-03-01 20:27:00,
2013-03-01 14:33:00,37.5,30.3,30.01,South,173,2.0,4.0,75,0.00,,,0.00,Wunderground v.1.15,2013-03-01 20:33:00,
2013-03-01 14:38:00,37.6,30.4,30.01,ESE,123,2.0,4.0,75,0.00,,,0.00,Wunderground v.1.15,2013-03-01 20:38:00,
2013-03-01 14:43:00,37.7,30.2,30.01,SSE,163,2.0,4.0,74,0.00,,,0.00,Wunderground v.1.15,2013-03-01 20:43:00,
2013-03-01 14:50:00,37.7,30.2,30.01,SE,136,2.0,4.0,74,0.00,,,0.00,Wunderground v.1.15,2013-03-01 20:50:00,
2013-03-01 14:55:00,37.9,30.7,30.01,SSE,149,2.0,4.0,75,0.00,,,0.00,Wunderground v.1.15,2013-03-01 20:55:00,
2013-03-01 15:01:00,38.0,30.8,30.01,SE,143,1.0,4.0,75,0.00,,,0.00,Wunderground v.1.15,2013-03-01 21:01:00,
2013-03-01 15:06:00,38.0,30.4,30.00,SSE,156,1.0,4.0,74,0.00,,,0.00,Wunderground v.1.15,2013-03-01 21:06:00,
2013-03-01 15:11:00,37.9,30.0,30.00,SSE,156,1.0,4.0,73,0.00,,,0.00,Wunderground v.1.15,2013-03-01 21:11:00,
2013-03-01 15:17:00,37.8,30.3,30.01,SE,140,1.0,4.0,74,0.00,,,0.00,Wunderground v.1.15,2013-03-01 21:17:00,
2013-03-01 15:22:00,37.8,30.3,30.00,SE,140,2.0,4.0,74,0.00,,,0.00,Wunderground v.1.15,2013-03-01 21:22:00,
2013-03-01 15:28:00,37.7,30.2,30.00,ESE,120,2.0,8.0,74,0.00,,,0.00,Wunderground v.1.15,2013-03-01 21:28:00,
2013-03-01 15:33:00,37.6,30.4,30.00,SSE,156,3.0,5.0,75,0.00,,,0.00,Wunderground v.1.15,2013-03-01 21:33:00,
2013-03-01 15:38:00,37.6,30.1,30.01,SE,142,3.0,5.0,74,0.00,,,0.00,Wunderground v.1.15,2013-03-01 21:38:00,
2013-03-01 15:44:00,37.7,30.2,30.01,SE,138,2.0,4.0,74,0.00,,,0.00,Wunderground v.1.15,2013-03-01 21:44:00,
2013-03-01 15:49:00,37.8,30.6,30.01,SSE,147,1.0,1.0,75,0.00,,,0.00,Wunderground v.1.15,2013-03-01 21:49:00,
2013-03-01 15:55:00,37.9,30.4,30.01,SE,143,1.0,4.0,74,0.00,,,0.00,Wunderground v.1.15,2013-03-01 21:55:00,
2013-03-01 16:00:00,37.8,29.9,30.01,SE,134,2.0,4.0,73,0.00,,,0.00,Wunderground v.1.15,2013-03-01 22:00:00,
2013-03-01 16:05:00,37.7,30.2,30.01,SE,134,2.0,4.0,74,0.00,,,0.00,Wunderground v.1.15,2013-03-01 22:05:00,
2013-03-01 16:11:00,37.9,30.4,30.01,SE,135,1.0,4.0,74,0.00,,,0.00,Wunderground v.1.15,2013-03-01 22:11:00,
2013-03-01 16:16:00,37.8,30.3,30.01,SSE,157,1.0,4.0,74,0.00,,,0.00,Wunderground v.1.15,2013-03-01 22:16:00,
2013-03-01 16:22:00,37.7,30.2,30.01,SSE,155,1.0,4.0,74,0.00,,,0.00,Wunderground v.1.15,2013-03-01 22:22:00,
2013-03-01 16:28:00,37.6,30.1,30.01,SE,141,2.0,4.0,74,0.00,,,0.00,Wunderground v.1.15,2013-03-01 22:28:00,
2013-03-01 16:33:00,37.6,30.1,30.01,SE,141,1.0,4.0,74,0.00,,,0.00,Wunderground v.1.15,2013-03-01 22:33:00,
2013-03-01 16:39:00,37.6,30.1,30.01,SE,129,1.0,4.0,74,0.00,,,0.00,Wunderground v.1.15,2013-03-01 22:39:00,
2013-03-01 16:45:00,37.4,30.2,30.01,SE,138,3.0,5.0,75,0.00,,,0.00,Wunderground v.1.15,2013-03-01 22:45:00,
2013-03-01 16:50:00,37.3,30.1,30.01,SE,126,3.0,4.0,75,0.00,,,0.00,Wunderground v.1.15,2013-03-01 22:50:00,
2013-03-01 16:56:00,37.2,30.3,30.01,SE,140,2.0,4.0,76,0.00,,,0.00,Wunderground v.1.15,2013-03-01 22:56:00,
2013-03-01 17:01:00,37.1,29.9,30.01,SSE,149,1.0,4.0,75,0.00,,,0.00,Wunderground v.1.15,2013-03-01 23:01:00,
2013-03-01 17:06:00,37.1,30.2,30.01,SSE,149,0.0,4.0,76,0.00,,,0.00,Wunderground v.1.15,2013-03-01 23:06:00,
2013-03-01 17:12:00,37.0,29.8,30.01,SE,138,0.0,4.0,75,0.00,,,0.00,Wunderground v.1.15,2013-03-01 23:12:00,
2013-03-01 17:17:00,37.0,30.1,30.01,SE,140,1.0,4.0,76,0.00,,,0.00,Wunderground v.1.15,2013-03-01 23:17:00,
2013-03-01 17:22:00,36.9,30.0,30.01,SE,143,1.0,4.0,76,0.00,,,0.00,Wunderground v.1.15,2013-03-01 23:22:00,
2013-03-01 17:28:00,36.9,30.0,30.02,SE,136,1.0,4.0,76,0.00,,,0.00,Wunderground v.1.15,2013-03-01 23:28:00,
2013-03-01 17:34:00,36.8,29.9,30.02,SE,142,1.0,4.0,76,0.00,,,0.00,Wunderground v.1.15,2013-03-01 23:34:00,
2013-03-01 17:39:00,36.8,29.9,30.02,SSE,157,1.0,1.0,76,0.00,,,0.00,Wunderground v.1.15,2013-03-01 23:39:00,
2013-03-01 17:45:00,36.8,29.9,30.02,SSE,155,0.0,4.0,76,0.00,,,0.00,Wunderground v.1.15,2013-03-01 23:45:00,
2013-03-01 17:50:00,36.8,29.9,30.02,SSE,155,0.0,4.0,76,0.00,,,0.00,Wunderground v.1.15,2013-03-01 23:50:00,
2013-03-01 17:55:00,36.7,29.8,30.02,SE,143,1.0,4.0,76,0.00,,,0.00,Wunderground v.1.15,2013-03-01 23:55:00,
2013-03-01 18:01:00,36.7,29.8,30.02,SE,140,1.0,4.0,76,0.00,,,0.00,Wunderground v.1.15,2013-03-02 00:01:00,
2013-03-01 18:07:00,36.7,29.8,30.03,SSE,149,1.0,4.0,76,0.00,,,0.00,Wunderground v.1.15,2013-03-02 00:07:00,
2013-03-01 18:12:00,36.7,30.2,30.03,SSE,159,1.0,4.0,77,0.00,,,0.00,Wunderground v.1.15,2013-03-02 00:12:00,
2013-03-01 18:17:00,36.6,30.1,30.03,SE,138,2.0,4.0,77,0.00,,,0.00,Wunderground v.1.15,2013-03-02 00:17:00,
2013-03-01 18:23:00,36.4,30.2,30.03,SE,140,2.0,4.0,78,0.00,,,0.00,Wunderground v.1.15,2013-03-02 00:23:00,
2013-03-01 18:28:00,36.3,30.1,30.03,SE,141,2.0,4.0,78,0.00,,,0.00,Wunderground v.1.15,2013-03-02 00:28:00,
2013-03-01 18:34:00,36.3,30.4,30.03,SSE,148,0.0,4.0,79,0.00,,,0.00,Wunderground v.1.15,2013-03-02 00:34:00,
2013-03-01 18:39:00,36.2,30.6,30.03,SSE,148,0.0,4.0,80,0.00,,,0.00,Wunderground v.1.15,2013-03-02 00:39:00,
2013-03-01 18:44:00,36.1,30.5,30.03,SSE,148,0.0,4.0,80,0.00,,,0.00,Wunderground v.1.15,2013-03-02 00:44:00,
2013-03-01 18:50:00,36.0,30.7,30.03,SSE,147,0.0,4.0,81,0.00,,,0.00,Wunderground v.1.15,2013-03-02 00:50:00,
2013-03-01 18:55:00,36.0,30.7,30.03,SSE,148,0.0,4.0,81,0.00,,,0.00,Wunderground v.1.15,2013-03-02 00:55:00,
2013-03-01 19:00:00,35.9,30.6,30.03,SSE,147,0.0,4.0,81,0.00,,,0.00,Wunderground v.1.15,2013-03-02 01:00:00,
2013-03-01 19:06:00,35.8,30.5,30.03,SSE,148,0.0,4.0,81,0.00,,,0.00,Wunderground v.1.15,2013-03-02 01:06:00,
2013-03-01 19:11:00,35.7,30.7,30.03,SSE,148,0.0,4.0,82,0.00,,,0.00,Wunderground v.1.15,2013-03-02 01:11:00,
2013-03-01 19:16:00,35.7,30.4,30.03,SSE,150,0.0,4.0,81,0.00,,,0.00,Wunderground v.1.15,2013-03-02 01:16:00,
2013-03-01 19:22:00,35.6,30.6,30.04,SSE,157,0.0,4.0,82,0.00,,,0.00,Wunderground v.1.15,2013-03-02 01:22:00,
2013-03-01 19:27:00,35.6,30.6,30.04,SSE,157,0.0,4.0,82,0.00,,,0.00,Wunderground v.1.15,2013-03-02 01:27:00,
2013-03-01 19:32:00,35.6,30.6,30.04,SSE,157,0.0,4.0,82,0.00,,,0.00,Wunderground v.1.15,2013-03-02 01:32:00,
2013-03-01 19:38:00,35.6,30.6,30.04,SSE,157,0.0,4.0,82,0.00,,,0.00,Wunderground v.1.15,2013-03-02 01:38:00,
2013-03-01 19:43:00,35.5,30.8,30.04,SSE,162,1.0,4.0,83,0.00,,,0.00,Wunderground v.1.15,2013-03-02 01:43:00,
2013-03-01 19:48:00,35.5,31.1,30.04,SSE,162,1.0,4.0,84,0.00,,,0.00,Wunderground v.1.15,2013-03-02 01:48:00,
2013-03-01 19:54:00,35.4,31.0,30.04,SSE,163,0.0,4.0,84,0.00,,,0.00,Wunderground v.1.15,2013-03-02 01:54:00,
2013-03-01 19:59:00,35.4,31.0,30.04,SSE,162,1.0,4.0,84,0.00,,,0.00,Wunderground v.1.15,2013-03-02 01:59:00,
2013-03-01 20:04:00,35.3,30.9,30.04,SSE,157,2.0,4.0,84,0.00,,,0.00,Wunderground v.1.15,2013-03-02 02:04:00,
2013-03-01 20:10:00,35.2,31.1,30.04,SSE,162,1.0,4.0,85,0.00,,,0.00,Wunderground v.1.15,2013-03-02 02:10:00,
2013-03-01 20:16:00,35.1,31.3,30.04,SSE,159,1.0,4.0,86,0.00,,,0.00,Wunderground v.1.15,2013-03-02 02:16:00,
2013-03-01 20:21:00,35.0,31.2,30.05,SSE,163,1.0,4.0,86,0.00,,,0.00,Wunderground v.1.15,2013-03-02 02:21:00,
2013-03-01 20:26:00,34.8,31.3,30.05,SSE,164,1.0,4.0,87,0.00,,,0.00,Wunderground v.1.15,2013-03-02 02:26:00,
2013-03-01 20:31:00,34.7,31.5,30.05,SSE,163,1.0,4.0,88,0.00,,,0.00,Wunderground v.1.15,2013-03-02 02:31:00,
2013-03-01 20:37:00,34.6,31.4,30.05,SSE,160,1.0,4.0,88,0.00,,,0.00,Wunderground v.1.15,2013-03-02 02:37:00,
2013-03-01 20:42:00,34.6,31.4,30.04,SSE,160,1.0,4.0,88,0.00,,,0.00,Wunderground v.1.15,2013-03-02 02:42:00,
2013-03-01 20:48:00,34.5,31.3,30.04,SSE,162,1.0,4.0,88,0.00,,,0.00,Wunderground v.1.15,2013-03-02 02:48:00,
2013-03-01 20:53:00,34.4,31.5,30.05,SSE,162,1.0,4.0,89,0.00,,,0.00,Wunderground v.1.15,2013-03-02 02:53:00,
2013-03-01 20:58:00,34.3,31.7,30.05,SSE,160,1.0,4.0,90,0.00,,,0.00,Wunderground v.1.15,2013-03-02 02:58:00,
2013-03-01 21:04:00,34.1,31.7,30.05,SSE,162,1.0,4.0,91,0.00,,,0.00,Wunderground v.1.15,2013-03-02 03:04:00,
2013-03-01 21:09:00,33.9,31.6,30.05,South,177,2.0,4.0,91,0.00,,,0.00,Wunderground v.1.15,2013-03-02 03:09:00,
2013-03-01 21:14:00,33.8,31.7,30.05,South,171,3.0,4.0,92,0.00,,,0.00,Wunderground v.1.15,2013-03-02 03:14:00,
2013-03-01 21:19:00,33.8,31.7,30.05,South,190,2.0,4.0,92,0.00,,,0.00,Wunderground v.1.15,2013-03-02 03:19:00,
2013-03-01 21:25:00,33.7,31.6,30.04,SSE,166,3.0,5.0,92,0.00,,,0.00,Wunderground v.1.15,2013-03-02 03:25:00,
2013-03-01 21:30:00,33.6,31.5,30.05,South,169,3.0,4.0,92,0.00,,,0.00,Wunderground v.1.15,2013-03-02 03:30:00,
2013-03-01 21:35:00,33.6,31.8,30.04,South,170,2.0,4.0,93,0.00,,,0.00,Wunderground v.1.15,2013-03-02 03:35:00,
2013-03-01 21:41:00,33.5,31.7,30.04,South,177,2.0,4.0,93,0.00,,,0.00,Wunderground v.1.15,2013-03-02 03:41:00,
2013-03-01 21:46:00,33.5,31.7,30.04,SSE,160,2.0,4.0,93,0.00,,,0.00,Wunderground v.1.15,2013-03-02 03:46:00,
2013-03-01 21:51:00,33.5,31.7,30.04,SSE,164,1.0,4.0,93,0.00,,,0.00,Wunderground v.1.15,2013-03-02 03:51:00,
2013-03-01 21:57:00,33.5,31.7,30.03,South,174,1.0,4.0,93,0.00,,,0.00,Wunderground v.1.15,2013-03-02 03:57:00,
2013-03-01 22:02:00,33.4,31.6,30.03,SSE,168,2.0,4.0,93,0.00,,,0.00,Wunderground v.1.15,2013-03-02 04:02:00,
2013-03-01 22:07:00,33.4,31.6,30.04,SSE,164,2.0,4.0,93,0.00,,,0.00,Wunderground v.1.15,2013-03-02 04:07:00,
2013-03-01 22:13:00,33.3,31.5,30.03,South,171,2.0,4.0,93,0.00,,,0.00,Wunderground v.1.15,2013-03-02 04:13:00,
2013-03-01 22:18:00,33.3,31.5,30.03,SSE,164,2.0,4.0,93,0.00,,,0.00,Wunderground v.1.15,2013-03-02 04:18:00,
2013-03-01 22:23:00,33.3,31.5,30.03,South,176,1.0,4.0,93,0.00,,,0.00,Wunderground v.1.15,2013-03-02 04:23:00,
2013-03-01 22:29:00,33.4,31.6,30.03,SSE,164,1.0,4.0,93,0.00,,,0.00,Wunderground v.1.15,2013-03-02 04:29:00,
2013-03-01 22:34:00,33.3,31.5,30.03,SSE,166,2.0,4.0,93,0.00,,,0.00,Wunderground v.1.15,2013-03-02 04:34:00,
2013-03-01 22:39:00,33.3,31.5,30.03,South,170,2.0,4.0,93,0.00,,,0.00,Wunderground v.1.15,2013-03-02 04:39:00,
2013-03-01 22:45:00,33.3,31.5,30.03,South,183,2.0,4.0,93,0.00,,,0.00,Wunderground v.1.15,2013-03-02 04:45:00,
2013-03-01 22:50:00,33.4,31.6,30.03,SSE,163,2.0,4.0,93,0.00,,,0.00,Wunderground v.1.15,2013-03-02 04:50:00,
2013-03-01 22:56:00,33.4,31.6,30.03,SSE,162,2.0,4.0,93,0.00,,,0.00,Wunderground v.1.15,2013-03-02 04:56:00,
2013-03-01 23:00:00,33.4,31.6,30.03,South,169,2.0,4.0,93,0.00,,,0.00,Wunderground v.1.15,2013-03-02 05:00:00,
2013-03-01 23:01:00,33.4,31.6,30.03,South,172,2.0,4.0,93,0.00,,,0.00,Wunderground v.1.15,2013-03-02 05:01:00,
2013-03-01 23:05:00,33.4,31.6,30.02,SSE,162,2.0,4.0,93,0.00,,,0.00,Wunderground v.1.15,2013-03-02 05:05:00,
2013-03-01 23:07:00,33.4,31.6,30.02,South,170,2.0,4.0,93,0.00,,,0.00,Wunderground v.1.15,2013-03-02 05:07:00,
2013-03-01 23:13:00,33.4,31.3,30.02,SSE,166,2.0,4.0,92,0.00,,,0.00,Wunderground v.1.15,2013-03-02 05:13:00,
2013-03-01 23:18:00,33.4,31.3,30.02,SSE,167,1.0,4.0,92,0.00,,,0.00,Wunderground v.1.15,2013-03-02 05:18:00,
2013-03-01 23:23:00,33.4,31.3,30.02,SSE,162,1.0,4.0,92,0.00,,,0.00,Wunderground v.1.15,2013-03-02 05:23:00,
2013-03-01 23:29:00,33.4,31.3,30.02,SSE,162,1.0,1.0,92,0.00,,,0.00,Wunderground v.1.15,2013-03-02 05:29:00,
2013-03-01 23:34:00,33.4,31.3,30.02,South,169,1.0,4.0,92,0.00,,,0.00,Wunderground v.1.15,2013-03-02 05:34:00,
2013-03-01 23:39:00,33.4,31.3,30.02,South,170,2.0,4.0,92,0.00,,,0.00,Wunderground v.1.15,2013-03-02 05:39:00,
2013-03-01 23:45:00,33.4,31.3,30.02,South,184,2.0,4.0,92,0.00,,,0.00,Wunderground v.1.15,2013-03-02 05:45:00,
2013-03-01 23:50:00,33.5,31.4,30.02,SSE,159,2.0,4.0,92,0.00,,,0.00,Wunderground v.1.15,2013-03-02 05:50:00,
2013-03-01 23:55:00,33.4,31.3,30.02,South,184,2.0,4.0,92,0.00,,,0.00,Wunderground v.1.15,2013-03-02 05:55:00,